[[{"header":{"parameterUnit":"m.s-1","parameterCategory":1,"la1":30.2991,"la2":30.254,"lo1":-89.0895,"lo2":-89.0444,"dy":0.0017,"dx":0.0017,"nx":28,"ny":28,"refTime":"2024-03-10T03:00:00:Z","depth":0,"parameterNumber":2,"parameterNumberName":"U-component_of_WINDS"},"data":[0,0,0,0,0,0,0,0,0,0,0,0,0,0,0,0,0,0,0,0,0,0,0,0,0,0,0,0,0,0,0,0,0,0,0,0,0,0,0,0,0,0,0,0,0,0,0,0,0,0,0,0,0,0,0,0,0,0,-0.8422,-0.8423,0,-0.8532,-0.8533,-0.8534,-0.8526,-0.8525,-0.8523,-0.8521,-0.8638,-0.8643,-0.8647,0,0,0,0,0,0,0,0,0,0,0,0,0,-0.8209,-0.8213,-0.8422,-0.8423,-0.8424,-0.8531,-0.8533,-0.8534,-0.8526,-0.8524,-0.8522,-0.8521,-0.8637,-0.8642,-0.8648,0,0,0,0,0,0,0,0,0,0,0,0,0,-0.8309,-0.8215,-0.8422,-0.8433,-0.8435,-0.8531,-0.8533,-0.8535,-0.8527,-0.8524,-0.8522,-0.852,-0.8635,-0.8641,-0.8648,-0.8741,0,0,-0.867,-0.8673,0,0,0,0,0,0,0,0,-0.8303,-0.8317,-0.843,-0.8433,-0.8435,-0.8513,-0.8501,-0.8604,-0.8528,-0.8492,-0.8521,-0.8518,-0.8599,-0.8608,-0.8635,-0.8746,-0.8751,-0.867,-0.8674,-0.8677,-0.8679,0,0,0,0,0,0,0,-0.8296,-0.8312,-0.8465,-0.8432,-0.8435,-0.8434,-0.8446,-0.852,-0.8558,-0.8495,-0.8495,-0.8508,-0.86,-0.8628,-0.8637,-0.8753,-0.867,-0.8676,-0.8681,-0.8683,-0.8947,-0.895,0,0,0,0,0,0,-0.8286,-0.8306,-0.8462,-0.8469,-0.8362,-0.844,-0.8453,-0.849,-0.8557,-0.8565,-0.851,-0.8507,-0.8617,-0.8629,-0.8641,-0.8755,-0.8677,-0.8684,-0.8688,-0.8944,-0.8948,-0.8951,0,0,0,0,0,0,-0.8282,-0.83,-0.8457,-0.8387,-0.8407,-0.8447,-0.8489,-0.8494,-0.8522,-0.8568,-0.8575,-0.8532,-0.8616,-0.8632,-0.8716,-0.8759,-0.8687,-0.8693,-0.8941,-0.8945,-0.8949,-0.8983,0,0,0,0,0,0,-0.8275,-0.8298,-0.8333,-0.8388,-0.8411,-0.8529,-0.8491,-0.8498,-0.8534,-0.8531,-0.859,-0.8598,-0.8615,-0.8706,-0.8723,-0.8767,-0.8699,-0.8937,-0.8943,-0.8948,-0.8978,-0.8988,-0.8996,0,0,0,0,0,-0.8268,-0.8339,-0.8335,-0.8354,-0.8455,-0.8532,-0.8545,-0.8562,-0.8537,-0.8573,-0.8603,-0.8596,-0.8751,-0.8714,-0.8734,-0.8781,-0.8935,-0.8941,-0.8948,-0.8974,-0.8986,-0.8996,0,0,0,0,0,0,-0.8289,-0.8346,-0.8343,-0.8433,-0.8477,-0.853,-0.8576,-0.8574,-0.8627,-0.8623,-0.8642,-0.8656,-0.8741,-0.8769,-0.8728,-0.8874,-0.884,-0.885,-0.8853,-0.8865,-0.8874,-0.8866,-0.8705,0,0,0,0,0,-0.8304,-0.8361,-0.8408,-0.8483,-0.8505,-0.8537,-0.8571,-0.858,-0.8627,-0.8647,-0.8682,-0.873,-0.8789,-0.8828,-0.8885,-0.8981,-0.8995,-0.9023,-0.9032,-0.9039,-0.9049,-0.9103,-0.9117,-0.8972,-0.8972,-0.8972,0,0,-0.8337,-0.8374,-0.8409,-0.8488,-0.8524,-0.8583,-0.8553,-0.8617,-0.8662,-0.8657,-0.8739,-0.8767,-0.8821,-0.8912,-0.8954,-0.8938,-0.9092,-0.9047,-0.9053,-0.9059,-0.9111,-0.9125,-0.9137,-0.8976,-0.8975,-0.8975,0,0,-0.8426,-0.8459,-0.8526,-0.8562,-0.8616,-0.8636,-0.8652,-0.8705,-0.8723,-0.8806,-0.8803,-0.8857,-0.8959,-0.8998,-0.9031,-0.9135,-0.9132,-0.9153,-0.92,-0.9253,-0.9265,-0.9275,-0.9314,-0.9327,-0.9162,-0.9162,-0.9162,0,-0.846,-0.8548,-0.8562,-0.8626,-0.8662,-0.8658,-0.8727,-0.8762,-0.8832,-0.8857,-0.8838,-0.8966,-0.9002,-0.9103,-0.9128,-0.9154,-0.9174,-0.9147,-0.9261,-0.9272,-0.9282,-0.9319,-0.9333,-0.9164,-0.9164,-0.9164,-0.9164,0,-0.8588,-0.8649,-0.8697,-0.8763,-0.8804,-0.8871,-0.8896,-0.8936,-0.8941,-0.8963,-0.9048,-0.9091,-0.9157,-0.9181,-0.9187,-0.9284,-0.9272,-0.9257,-0.9223,-0.9298,-0.9333,-0.9348,-0.9168,-0.9167,-0.9166,-0.9166,0,0,-0.8696,-0.8768,-0.8786,-0.8816,-0.8875,-0.8923,-0.899,-0.9053,-0.9088,-0.9136,-0.9194,-0.9279,-0.9265,-0.9303,-0.9313,-0.9359,-0.9441,-0.9339,-0.934,-0.9358,-0.9551,-0.9564,-0.958,-0.9438,-0.944,-0.9443,-0.9548,0,-0.8793,-0.891,-0.8924,-0.9029,-0.9086,-0.9083,-0.9142,-0.9185,-0.9207,-0.9261,-0.9286,-0.9347,-0.9323,-0.9346,-0.9391,-0.9421,-0.948,-0.9413,-0.9494,-0.9497,-0.9483,-0.9599,-0.9613,-0.971,-0.9561,-0.9564,-0.9565,0,-0.8922,-0.8973,-0.9083,-0.9134,-0.9159,-0.9211,-0.927,-0.932,-0.9369,-0.9383,-0.9425,-0.9429,-0.9499,-0.946,-0.9559,-0.9513,-0.9547,-0.9566,-0.9571,-0.9581,-0.9537,-0.9614,-0.9741,-0.9756,-0.9587,-0.9585,-0.9584,0,-0.8993,-0.9088,-0.9167,-0.9193,-0.9253,-0.929,-0.9318,-0.9364,-0.9401,-0.9454,-0.9478,-0.9538,-0.9572,-0.9619,-0.964,-0.961,-0.9738,-0.9701,-0.9753,-0.9753,-0.9783,-0.9781,-0.9918,-0.98,-0.98,-0.9799,-0.9799,0,-0.9101,-0.9169,-0.9199,-0.9248,-0.9324,-0.934,-0.9416,-0.9442,-0.9483,-0.9538,-0.9538,-0.959,-0.9613,-0.9669,-0.9686,-0.9766,-0.9781,-0.9795,-0.9799,-0.9796,-0.9795,-0.982,-0.9815,-0.9803,-0.9803,-0.9802,-0.9801,0,-0.9194,-0.9216,-0.9302,-0.9352,-0.9366,-0.9421,-0.9464,-0.9512,-0.9533,-0.9603,-0.962,-0.9655,-0.972,-0.9745,-0.9825,-0.9836,-0.993,-0.9927,-0.9913,-0.9915,-0.9967,-0.9962,-1.0127,-1.0151,-1.0015,-1.0016,-1.0017,0,-0.9262,-0.9315,-0.937,-0.9406,-0.9434,-0.9492,-0.953,-0.9547,-0.9587,-0.9646,-0.9688,-0.9752,-0.9805,-0.991,-0.9944,-1.0005,-1.0006,-1.0059,-1.0015,-1.0011,-1.0009,-1.0007,-1.0013,-1.0068,-1.007,-1.0071,-1.0072,0,-0.9383,-0.9391,-0.9445,-0.9503,-0.9548,-0.9595,-0.964,-0.967,-0.9694,-0.9739,-0.9805,-0.9846,-0.9928,-0.9993,-1.0056,-1.0085,-1.0084,-1.0085,-1.0101,-1.01,-1.009,-1.0098,-0.9938,-1.0082,-1.0081,-1.008,-1.008,-1.0079,-0.9468,-0.9514,-0.956,-0.962,-0.9656,-0.9698,-0.9746,-0.9773,-0.9828,-0.9895,-0.9902,-0.9974,-1.0022,-1.0106,-1.0138,-1.0196,-1.0182,-1.0204,-1.021,-1.0216,-1.0221,-1.0079,-1.0207,-1.0207,-1.0207,-1.0206,-1.0206,0,-0.959,-0.9619,-0.9674,-0.9737,-0.9785,-0.9776,-0.9826,-0.9867,-0.993,-0.9974,-1.0026,-1.0103,-1.0166,-1.0203,-1.0267,-1.0306,-1.0307,-1.0322,-1.0321,-1.0328,-1.0229,-1.021,-1.032,-1.032,-1.032,-1.032,-1.032,-1.032,-0.966,-0.9738,-0.9752,-0.9849,-0.9878,-0.9948,-0.9977,-1.0017,-1.0052,-1.0138,-1.0189,-1.0213,-1.0255,-1.0321,-1.0379,-1.0389,-1.0413,-1.0431,-1.0439,-1.0347,-1.0335,-1.0324,-1.0306,-1.0435,-1.0435,-1.0534,-1.0535,-1.0536]},{"header":{"parameterUnit":"m.s-1","parameterCategory":1,"la1":30.2991,"la2":30.254,"lo1":-89.0895,"lo2":-89.0444,"dy":0.0017,"dx":0.0017,"nx":28,"ny":28,"refTime":"2024-03-10T03:00:00:Z","depth":0,"parameterNumber":3,"parameterNumberName":"V-component_of_WINDS"},"data":[0,0,0,0,0,0,0,0,0,0,0,0,0,0,0,0,0,0,0,0,0,0,0,0,0,0,0,0,0,0,0,0,0,0,0,0,0,0,0,0,0,0,0,0,0,0,0,0,0,0,0,0,0,0,0,0,0,0,-4.2528,-4.2528,0,-4.2606,-4.2607,-4.2608,-4.2529,-4.2526,-4.2523,-4.252,-4.26,-4.2604,-4.2609,0,0,0,0,0,0,0,0,0,0,0,0,0,-4.2308,-4.2313,-4.2527,-4.2528,-4.2529,-4.2606,-4.2607,-4.2608,-4.253,-4.2526,-4.2522,-4.2519,-4.2598,-4.2604,-4.261,0,0,0,0,0,0,0,0,0,0,0,0,0,-4.2397,-4.2314,-4.2527,-4.25,-4.2498,-4.2606,-4.2607,-4.2608,-4.2531,-4.2526,-4.2522,-4.2517,-4.2596,-4.2603,-4.2611,-4.2749,0,0,-4.2633,-4.2637,0,0,0,0,0,0,0,0,-4.2392,-4.2405,-4.2503,-4.2502,-4.25,-4.2553,-4.2559,-4.2655,-4.2532,-4.2518,-4.252,-4.2515,-4.2588,-4.2596,-4.262,-4.2752,-4.2756,-4.2634,-4.2639,-4.2642,-4.2644,0,0,0,0,0,0,0,-4.2386,-4.2401,-4.2558,-4.2504,-4.2503,-4.2483,-4.249,-4.2577,-4.2578,-4.2519,-4.2514,-4.2524,-4.2586,-4.2613,-4.2622,-4.2757,-4.2634,-4.264,-4.2645,-4.2648,-4.3006,-4.3011,0,0,0,0,0,0,-4.2383,-4.2397,-4.2556,-4.2561,-4.2434,-4.2491,-4.2499,-4.2541,-4.2577,-4.2578,-4.2528,-4.252,-4.2603,-4.2613,-4.2624,-4.2789,-4.2642,-4.2649,-4.2653,-4.3001,-4.3007,-4.3012,0,0,0,0,0,0,-4.2379,-4.2398,-4.2553,-4.2477,-4.2495,-4.2499,-4.2547,-4.2545,-4.2572,-4.2583,-4.2583,-4.2556,-4.26,-4.2614,-4.2718,-4.279,-4.2652,-4.2659,-4.2995,-4.3003,-4.301,-4.3119,0,0,0,0,0,0,-4.2373,-4.2397,-4.245,-4.2479,-4.25,-4.2647,-4.2551,-4.255,-4.2585,-4.2576,-4.2609,-4.2611,-4.2597,-4.2708,-4.2726,-4.2798,-4.2665,-4.2989,-4.2998,-4.3007,-4.3109,-4.3129,-4.3146,0,0,0,0,0,-4.2365,-4.2477,-4.2453,-4.2473,-4.2566,-4.2651,-4.2663,-4.2646,-4.2591,-4.2645,-4.2652,-4.2609,-4.2779,-4.2719,-4.2739,-4.2814,-4.2984,-4.2996,-4.3007,-4.31,-4.3125,-4.3146,0,0,0,0,0,0,-4.2457,-4.2481,-4.2454,-4.2579,-4.2614,-4.2638,-4.2704,-4.2672,-4.2723,-4.2712,-4.2687,-4.2696,-4.2807,-4.282,-4.2753,-4.295,-4.2873,-4.2888,-4.2937,-4.2961,-4.2979,-4.2974,-4.2671,0,0,0,0,0,-4.2491,-4.2559,-4.2576,-4.2684,-4.2703,-4.2701,-4.2737,-4.2721,-4.2755,-4.2769,-4.2784,-4.2819,-4.288,-4.2921,-4.2977,-4.311,-4.3116,-4.3171,-4.319,-4.3205,-4.322,-4.3291,-4.3316,-4.305,-4.305,-4.3049,0,0,-4.2564,-4.2585,-4.2629,-4.2703,-4.2728,-4.2798,-4.2714,-4.2791,-4.2843,-4.2781,-4.2881,-4.2893,-4.293,-4.3049,-4.3102,-4.3064,-4.3294,-4.322,-4.3232,-4.3238,-4.3305,-4.333,-4.3353,-4.3057,-4.3056,-4.3055,0,0,-4.2732,-4.2755,-4.2848,-4.2874,-4.2913,-4.2911,-4.2933,-4.2962,-4.2968,-4.3068,-4.3023,-4.3083,-4.3189,-4.3217,-4.3245,-4.3423,-4.3386,-4.3442,-4.3541,-4.361,-4.3631,-4.365,-4.3714,-4.3737,-4.3456,-4.3456,-4.3456,0,-4.2817,-4.2921,-4.29,-4.2981,-4.3015,-4.2962,-4.3056,-4.3082,-4.3137,-4.3162,-4.3118,-4.3249,-4.327,-4.3396,-4.3439,-4.3463,-4.3488,-4.3439,-4.363,-4.3648,-4.3665,-4.3726,-4.375,-4.3463,-4.3462,-4.3461,-4.3461,0,-4.3024,-4.3097,-4.3167,-4.3223,-4.3264,-4.3351,-4.3342,-4.3387,-4.3366,-4.3368,-4.3471,-4.3494,-4.3554,-4.3582,-4.3563,-4.3705,-4.368,-4.3634,-4.3556,-4.3698,-4.3754,-4.3777,-4.3472,-4.347,-4.3468,-4.3466,0,0,-4.3254,-4.3295,-4.3322,-4.3346,-4.3384,-4.344,-4.3524,-4.3583,-4.3622,-4.3661,-4.3731,-4.3821,-4.3778,-4.3811,-4.3794,-4.3854,-4.3994,-4.38,-4.3801,-4.3836,-4.4152,-4.4188,-4.4215,-4.3969,-4.3973,-4.3977,-4.4149,0,-4.3424,-4.3571,-4.3554,-4.3694,-4.3761,-4.3711,-4.3784,-4.3815,-4.3819,-4.3875,-4.3879,-4.3944,-4.3882,-4.3901,-4.3959,-4.3965,-4.4057,-4.3952,-4.4034,-4.4037,-4.4028,-4.4245,-4.4283,-4.4444,-4.4171,-4.4175,-4.4178,0,-4.3642,-4.369,-4.3837,-4.3865,-4.3892,-4.3958,-4.4011,-4.4066,-4.41,-4.4098,-4.4134,-4.4106,-4.4189,-4.4109,-4.4224,-4.4153,-4.4184,-4.4193,-4.4198,-4.4207,-4.4117,-4.426,-4.4495,-4.452,-4.4212,-4.4209,-4.4207,0,-4.3796,-4.3897,-4.3998,-4.402,-4.4054,-4.4102,-4.4119,-4.4148,-4.4184,-4.423,-4.4254,-4.4308,-4.4339,-4.4381,-4.4369,-4.4311,-4.4487,-4.4405,-4.4488,-4.4488,-4.4528,-4.4526,-4.4774,-4.4547,-4.4547,-4.4546,-4.4546,0,-4.3988,-4.4081,-4.4067,-4.413,-4.4231,-4.421,-4.4311,-4.4321,-4.4347,-4.441,-4.4369,-4.4429,-4.4408,-4.4466,-4.4457,-4.4553,-4.4567,-4.4568,-4.4565,-4.4573,-4.4573,-4.4594,-4.4583,-4.4553,-4.4551,-4.455,-4.4549,0,-4.4178,-4.4173,-4.428,-4.4304,-4.4312,-4.4386,-4.4405,-4.4464,-4.4464,-4.4544,-4.4561,-4.4561,-4.4628,-4.4619,-4.4693,-4.4686,-4.4807,-4.4789,-4.4796,-4.4793,-4.4876,-4.4869,-4.5148,-4.5183,-4.4933,-4.4935,-4.4937,0,-4.4302,-4.4372,-4.4403,-4.4443,-4.4463,-4.4527,-4.4564,-4.4545,-4.4585,-4.4628,-4.4682,-4.4744,-4.4794,-4.4902,-4.4909,-4.4965,-4.4949,-4.5042,-4.4957,-4.4963,-4.4951,-4.4948,-4.4955,-4.506,-4.5063,-4.5065,-4.5067,0,-4.4523,-4.4517,-4.4573,-4.4628,-4.4673,-4.4715,-4.4753,-4.4788,-4.4772,-4.4819,-4.4887,-4.4926,-4.5001,-4.5064,-4.5117,-4.5132,-4.5098,-4.5094,-4.5116,-4.5126,-4.5127,-4.5128,-4.4844,-4.5088,-4.5086,-4.5084,-4.5083,-4.5082,-4.4685,-4.4744,-4.4776,-4.4839,-4.4865,-4.4902,-4.4958,-4.4964,-4.5021,-4.5081,-4.5066,-4.5143,-4.5173,-4.5241,-4.5262,-4.5321,-4.5287,-4.5319,-4.5327,-4.5336,-4.5346,-4.5117,-4.5331,-4.533,-4.5329,-4.5329,-4.5328,0,-4.4904,-4.4922,-4.498,-4.5034,-4.5084,-4.5046,-4.5086,-4.513,-4.5198,-4.523,-4.528,-4.5357,-4.5418,-4.5428,-4.5486,-4.5531,-4.5517,-4.5547,-4.5544,-4.5549,-4.5373,-4.5349,-4.5558,-4.5558,-4.5558,-4.5558,-4.5558,-4.5558,-4.5024,-4.5124,-4.5121,-4.5233,-4.5249,-4.5324,-4.535,-4.5383,-4.5409,-4.5497,-4.5548,-4.5554,-4.5577,-4.5636,-4.569,-4.5691,-4.5714,-4.5752,-4.5747,-4.5584,-4.5561,-4.5539,-4.5516,-4.5757,-4.5757,-4.5917,-4.5919,-4.592]}]]